GEFSGL_500_meanwind_162.txt.gz
Wind_Speed
7 6 6 6 6 6 7 7 8 9 10 10 11 11 11 11 11 11 11 11 10 10 10 10 10 10 10 9 9 10 10 10 11 12 13 14 15 16 17 18 19 20 21
7 7 7 7 7 7 8 9 9 10 11 11 12 12 12 12 12 12 12 12 12 12 12 11 11 11 12 12 12 12 12 12 13 13 14 15 16 17 18 19 20 21 22
8 8 8 8 8 9 10 11 11 12 13 13 13 13 13 13 14 14 14 14 14 14 14 14 14 14 14 14 14 14 14 15 15 16 16 17 18 19 20 20 20 21 22
9 10 10 10 10 11 12 12 13 14 14 14 15 15 15 15 15 15 16 16 16 16 16 16 16 17 17 17 17 17 17 17 18 18 19 19 20 21 22 22 22 23 24
11 12 12 12 12 13 13 14 15 15 15 16 16 17 17 17 17 17 17 18 18 19 19 19 19 19 19 19 19 19 20 20 20 21 22 22 22 23 24 25 25 25 26
13 13 14 14 15 15 15 16 17 17 18 18 18 19 19 20 20 20 21 21 21 21 22 22 22 22 22 21 21 21 22 22 23 23 24 24 25 26 26 27 28 28 28
15 16 16 17 17 17 18 18 19 19 20 20 21 21 22 22 23 23 24 24 24 24 24 24 24 24 24 24 24 24 24 24 25 26 26 27 27 28 28 29 29 30 30
17 18 19 19 19 20 20 21 21 22 22 23 24 24 24 24 25 25 26 26 26 26 26 26 26 27 27 27 27 26 27 27 28 28 29 29 30 30 30 30 31 31 32
18 19 20 20 21 22 22 23 24 24 25 25 26 26 26 27 27 27 28 28 29 29 29 29 29 29 30 30 30 30 30 30 31 31 32 32 32 32 33 33 33 33 33
20 21 22 23 23 24 25 25 26 27 27 28 28 28 28 29 30 30 31 31 31 32 32 32 33 33 33 33 34 34 34 34 34 34 34 35 35 35 36 36 36 36 36
22 23 24 25 25 26 27 28 29 29 30 30 31 31 32 32 33 33 33 34 34 35 35 36 36 36 37 37 38 38 38 38 37 37 37 37 38 38 39 39 39 39 39
24 25 26 27 27 28 29 30 31 31 32 33 33 34 34 35 35 36 36 37 38 38 39 39 39 40 40 40 41 41 41 41 41 41 41 41 41 41 42 42 42 42 42
26 27 27 28 29 30 31 32 33 34 35 35 36 36 37 38 38 38 39 40 40 41 41 42 42 43 43 43 43 43 44 44 44 44 44 45 45 45 45 45 45 45 45
29 29 30 30 31 32 33 34 35 36 37 38 39 40 40 40 41 41 41 42 43 43 43 44 44 45 45 45 46 46 46 47 47 48 48 48 48 49 49 49 49 49 48
31 31 32 32 33 34 36 37 38 38 39 40 41 42 42 42 42 43 44 44 45 45 45 46 47 47 47 47 47 47 48 48 49 50 50 51 51 51 52 52 52 52 51
33 33 34 34 35 37 38 39 40 41 42 43 43 43 43 44 44 45 46 46 47 48 48 48 48 49 49 49 49 49 50 50 51 52 52 53 53 53 53 53 54 53 53
35 35 36 37 38 39 40 41 42 42 43 43 44 45 45 46 47 48 48 49 50 50 51 51 51 51 51 51 52 52 52 52 53 54 54 55 55 54 54 54 55 55 55
36 37 38 39 40 41 42 43 44 44 45 45 46 47 48 48 49 50 51 51 52 52 53 53 54 54 54 54 54 55 55 55 55 56 56 56 56 56 56 56 56 56 56
38 39 41 42 43 44 44 45 46 46 47 47 48 49 50 51 51 52 53 53 54 54 55 55 56 56 57 57 57 57 56 56 56 56 55 55 55 55 55 55 55 55 55
40 42 43 44 45 46 47 47 48 48 49 50 51 52 52 52 53 53 54 55 56 56 56 57 57 58 58 58 58 57 57 55 54 54 54 54 54 54 53 53 53 53 53
43 44 45 46 47 48 49 49 50 50 51 52 52 53 53 54 54 55 55 56 57 57 57 57 57 57 56 55 54 54 54 53 52 52 52 52 52 52 52 51 51 51 51
45 46 47 48 49 50 50 51 51 52 52 53 54 54 54 55 55 56 56 56 56 56 56 55 54 54 53 52 52 51 51 50 49 49 48 48 48 48 48 48 48 48 48
47 48 49 49 50 51 51 52 53 53 54 54 54 54 54 55 56 56 56 55 55 54 54 53 52 51 50 50 50 49 48 47 46 46 46 45 45 45 45 45 45 45 45
48 49 49 50 51 51 52 52 53 53 54 54 54 54 55 55 55 55 54 54 53 52 51 50 49 49 49 49 48 47 47 46 45 44 44 44 43 43 43 42 41 41 42
48 49 50 50 50 51 52 52 53 53 53 54 54 54 54 54 54 53 52 51 50 50 49 48 48 47 47 47 47 46 45 44 43 43 43 42 41 41 40 39 38 39 39
49 49 49 50 50 51 51 52 52 52 52 52 52 53 53 52 52 50 49 49 48 48 47 47 47 46 46 45 44 43 42 42 42 42 41 40 39 38 38 37 37 37 37

GEFSGL_500_meanwind_168.txt.gz
Wind_Speed
8 8 8 8 8 7 7 7 8 8 10 10 11 12 12 12 12 13 13 13 12 12 12 12 12 12 12 13 13 13 13 13 13 13 13 14 14 15 15 16 17 18 18
9 9 9 9 9 9 9 9 9 10 11 11 12 13 13 13 13 14 14 14 14 14 14 14 14 14 14 14 14 14 14 15 15 15 15 16 17 17 17 17 18 19 20
9 10 10 10 10 10 11 11 12 12 12 13 13 14 14 14 15 15 16 16 16 16 16 16 16 16 16 16 16 17 17 17 17 17 18 18 19 19 19 20 20 21 22
10 10 11 11 11 12 12 13 14 14 14 14 15 15 16 16 16 17 18 18 18 18 18 18 18 18 19 18 19 19 20 20 20 20 20 21 21 21 22 22 23 23 24
11 11 11 12 13 14 14 15 15 16 15 16 16 17 18 18 18 19 19 20 20 20 20 20 20 21 21 21 22 22 23 23 23 23 23 23 23 24 24 25 25 26 27
12 12 13 14 15 15 16 16 17 17 17 18 19 19 20 21 21 21 22 22 22 22 22 23 23 23 24 24 24 24 25 25 25 25 25 26 26 26 27 27 27 28 28
12 13 14 16 16 16 16 17 17 18 19 20 21 21 22 23 23 23 23 23 24 24 25 25 26 26 26 26 26 26 26 27 28 28 28 28 29 29 29 29 30 31 31
14 15 16 17 17 18 18 19 19 21 22 22 23 23 24 24 24 24 24 25 26 26 27 27 27 27 27 28 28 29 29 29 30 31 31 32 32 33 33 33 33 33 34
16 17 18 19 19 20 20 21 22 23 24 24 25 25 25 26 26 27 27 27 28 29 29 30 30 30 30 31 31 31 31 32 33 33 34 34 35 36 36 37 37 37 37
17 18 20 21 21 22 22 23 24 25 26 26 27 27 27 28 29 29 30 31 32 32 32 32 32 33 33 34 34 34 34 35 35 35 36 37 37 38 40 41 41 41 41
19 20 21 21 22 23 23 24 25 26 27 28 29 29 30 31 32 33 33 34 34 34 35 35 35 35 35 36 36 37 37 37 38 38 39 39 40 41 41 42 43 44 44
20 21 22 22 23 24 25 26 27 28 29 29 31 32 33 34 34 35 36 36 36 36 36 37 37 37 37 38 38 39 40 40 41 41 41 42 42 42 43 43 44 45 45
22 23 23 24 25 26 27 28 29 30 31 32 33 34 35 36 37 37 38 38 38 38 38 39 39 40 41 41 42 42 42 43 43 44 44 44 45 45 46 46 47 48 48
24 25 26 27 28 29 30 31 32 33 34 35 35 36 37 38 39 39 39 39 40 40 41 42 42 43 44 44 44 44 44 45 46 47 48 48 48 49 50 50 51 51 51
26 27 28 29 30 32 32 33 34 35 36 37 38 39 39 40 40 41 41 41 42 43 44 44 45 46 46 46 47 47 48 48 49 50 51 51 51 52 52 52 53 53 53
29 30 31 32 33 34 35 36 37 38 39 39 40 41 42 42 43 43 44 44 45 46 47 47 48 48 48 49 50 50 51 52 53 54 54 54 54 54 54 54 54 54 54
31 32 34 35 36 37 38 39 39 40 41 42 42 43 44 45 45 46 47 47 48 49 49 49 50 50 51 52 53 54 54 55 55 56 56 56 56 55 55 55 55 55 55
34 35 37 38 39 40 40 40 41 41 42 43 44 45 46 47 48 48 49 49 49 50 50 51 51 52 52 54 55 56 56 56 56 57 57 56 55 54 54 53 53 53 53
37 38 39 40 41 41 41 42 42 43 44 45 46 47 48 48 49 49 49 50 50 51 51 52 52 53 54 54 55 56 56 56 56 56 55 54 53 52 51 50 51 51 51
39 40 41 41 41 42 43 43 44 45 46 47 47 48 49 50 50 50 50 51 51 52 52 53 53 54 55 55 56 55 55 55 54 54 53 52 51 50 49 49 49 49 49
41 41 42 42 43 43 44 45 46 47 47 48 48 49 50 51 51 51 51 52 52 53 53 53 54 55 55 55 55 54 53 53 52 51 50 49 48 48 47 47 47 47 48
43 43 43 43 44 45 45 46 47 48 48 49 50 50 51 51 52 52 52 53 53 54 54 54 54 54 54 54 53 52 51 50 49 48 47 46 46 45 45 45 45 45 46
43 43 44 44 45 45 46 47 48 49 50 50 51 52 52 52 52 52 52 52 52 53 53 53 52 52 51 51 50 49 49 48 47 46 45 44 44 44 44 44 44 43 43
43 44 45 45 46 46 47 48 49 49 50 51 52 52 53 52 52 52 51 51 51 51 51 51 50 50 49 48 48 47 47 46 45 44 44 43 43 43 42 42 42 41 41
45 45 45 46 47 47 48 49 50 50 51 51 52 52 52 51 51 50 50 50 50 49 49 49 50 49 49 48 47 47 46 46 45 45 44 44 43 42 42 41 41 40 40
45 45 46 46 47 47 48 49 49 50 50 51 51 51 50 50 50 50 49 49 49 49 50 50 50 49 48 47 47 46 46 45 45 45 45 44 43 42 42 41 39 39 38

GEFSGL_500_meanwind_174.txt.gz
Wind_Speed
8 8 7 7 7 7 7 6 6 6 7 7 8 9 9 9 10 11 12 12 12 13 13 13 13 13 13 13 13 13 13 13 13 13 14 14 15 16 17 18 19 19 20
9 8 8 8 8 8 7 7 7 8 8 9 9 10 10 11 12 12 13 13 14 14 15 15 15 15 15 15 15 15 15 16 16 16 16 17 17 18 18 19 20 21 21
10 9 9 9 8 8 8 8 9 9 9 10 11 11 12 13 13 14 14 15 16 17 17 17 17 17 17 17 17 17 17 18 19 19 19 19 20 20 21 21 22 23 24
10 10 10 9 9 9 9 9 10 10 11 11 13 13 14 14 15 15 16 17 18 18 18 18 19 19 19 19 19 19 20 21 21 21 21 22 22 23 23 23 24 25 25
10 10 10 10 10 11 11 11 11 12 12 13 14 15 16 16 17 17 18 19 19 19 20 20 20 21 21 21 22 22 23 23 23 24 24 24 24 25 25 25 26 26 27
10 11 12 12 12 12 12 12 13 14 14 15 16 17 18 18 18 19 20 20 21 21 21 22 22 23 23 24 24 24 25 25 25 26 26 27 27 27 27 28 28 29 29
11 11 11 12 13 13 13 14 14 15 16 17 18 19 20 20 20 21 21 22 23 23 23 24 24 25 26 26 27 27 27 28 28 29 29 29 29 29 30 30 31 31 32
11 12 12 13 13 14 14 15 16 17 18 19 20 20 21 21 21 22 23 24 25 25 26 26 27 27 28 28 29 30 30 30 30 30 31 31 32 32 32 33 33 34 35
12 13 13 14 14 15 15 16 17 18 19 21 21 22 23 22 23 24 25 25 26 27 28 29 29 30 30 31 32 32 32 33 33 33 33 33 34 34 35 35 36 37 37
13 14 14 14 15 16 16 17 18 19 20 21 22 23 23 24 25 26 26 27 28 29 30 31 32 33 33 33 34 34 34 35 35 36 36 37 37 38 39 39 40 40 41
15 15 15 15 16 16 17 18 20 21 22 22 23 24 24 26 27 28 29 30 31 32 33 34 34 35 35 36 36 36 36 37 37 38 39 40 40 41 42 43 43 44 45
16 16 17 17 18 18 19 20 21 22 23 24 25 26 27 28 30 31 32 33 34 35 36 36 37 37 38 38 39 39 40 40 41 41 42 42 43 44 44 45 46 46 47
17 18 19 19 20 21 21 22 23 24 25 26 28 29 30 32 33 34 34 36 37 38 38 39 40 40 41 41 42 42 43 43 43 43 44 45 46 47 47 48 49 49 49
19 20 20 21 21 22 23 25 26 27 29 30 31 32 34 34 35 36 37 39 40 41 41 42 42 43 44 44 45 45 45 45 45 46 47 48 49 50 51 51 51 51 52
19 20 21 22 23 25 26 28 29 31 32 33 34 36 36 37 38 39 40 41 42 43 43 44 45 45 46 46 46 46 47 47 48 49 49 50 51 52 53 54 54 55 55
21 23 24 25 26 28 30 31 32 33 34 36 37 38 38 39 40 41 42 43 43 44 45 45 46 46 47 47 48 48 49 49 50 51 51 52 53 54 54 55 56 56 56
24 25 26 27 29 31 32 34 35 36 36 37 39 39 40 41 42 43 44 45 45 46 47 47 48 48 49 49 50 50 50 51 52 53 54 55 56 56 56 56 56 56 56
27 28 29 31 32 34 35 36 37 38 38 39 40 41 42 43 44 45 46 47 47 48 49 49 49 50 50 51 52 52 52 53 53 54 55 56 57 57 57 57 56 55 55
30 31 32 34 35 36 37 37 38 39 40 41 41 42 43 44 45 46 47 48 49 49 50 50 50 51 51 52 52 53 54 54 55 55 56 56 57 57 56 56 55 55 54
32 34 35 36 37 37 38 38 39 40 41 42 43 43 44 45 46 47 48 49 49 50 50 51 52 52 52 52 52 53 54 54 55 55 55 55 55 55 54 54 54 53 52
34 35 36 37 38 38 39 40 41 41 42 43 43 44 45 46 47 48 48 49 50 50 51 52 52 52 52 52 52 52 53 53 54 54 54 53 53 52 51 50 50 49 49
36 37 37 38 39 39 40 41 42 42 43 43 44 45 46 47 48 48 49 49 50 51 51 52 51 51 52 52 52 52 52 53 53 52 52 51 50 49 48 48 48 48 47
37 38 38 39 39 40 41 41 42 43 44 45 46 46 47 48 48 49 50 50 51 52 52 51 51 51 51 51 52 52 53 53 52 52 51 49 48 47 46 46 46 46 45
38 39 39 40 40 41 41 42 43 44 46 46 47 47 48 48 49 50 51 51 51 51 50 50 50 50 50 50 51 51 52 52 51 51 50 48 47 46 46 45 45 44 44
40 40 40 41 42 42 43 43 45 46 47 47 47 48 48 49 49 50 51 51 51 50 49 49 49 50 50 50 50 50 51 51 50 49 48 47 46 45 45 44 43 42 42
41 41 42 42 43 44 44 45 46 47 47 47 47 48 48 49 49 50 50 50 50 49 49 49 49 50 50 50 50 50 50 50 49 48 47 46 45 44 43 43 42 41 40

GEFSGL_500_meanwind_180.txt.gz
Wind_Speed
10 9 10 9 9 9 8 8 7 7 7 7 7 7 7 8 8 9 10 11 11 12 13 13 14 14 14 14 15 15 15 16 16 16 17 17 18 18 19 20 21 22 23
11 10 10 10 10 10 9 9 9 9 9 9 9 8 9 9 10 11 12 13 13 14 14 15 16 16 16 16 17 17 17 18 18 18 19 19 20 20 21 22 23 24 25
11 10 11 11 11 11 11 11 11 10 10 10 10 10 10 11 12 12 13 14 15 16 16 17 17 17 17 18 18 19 19 19 20 20 21 21 22 23 24 24 25 26 27
11 11 12 12 12 12 12 12 12 11 11 11 11 11 12 13 14 15 16 16 17 18 18 18 19 19 19 20 20 20 21 21 22 23 23 24 25 26 26 27 28 28 29
12 12 12 12 12 13 13 13 12 12 12 12 12 13 14 14 16 16 17 18 19 19 19 20 20 21 21 22 22 23 23 24 24 25 26 27 27 28 29 29 30 30 31
12 13 13 13 13 13 13 12 12 13 13 14 14 15 16 17 17 18 19 20 21 21 21 21 22 23 23 24 25 25 26 27 27 28 28 29 29 30 30 31 31 32 32
13 13 13 13 13 13 13 13 13 13 14 15 16 17 17 18 19 20 21 22 22 22 23 23 24 24 25 26 27 28 28 29 30 30 30 31 31 32 32 33 33 33 34
14 14 14 14 14 13 12 13 13 14 15 16 17 18 19 20 21 22 22 23 24 24 24 25 26 27 27 28 29 30 30 31 31 32 32 33 33 34 35 35 36 36 37
14 14 14 14 13 13 13 13 14 15 16 17 18 19 20 21 22 23 24 25 26 26 27 28 29 30 31 31 32 32 33 33 34 34 35 36 37 37 37 38 38 39 39
13 13 13 13 13 14 14 15 16 17 18 19 20 21 22 23 24 25 26 27 28 29 30 31 31 33 34 35 35 35 36 36 37 37 38 39 39 40 40 40 41 41 42
15 15 15 15 15 16 16 17 18 18 19 20 21 22 24 25 26 27 29 30 31 32 32 33 34 35 36 37 38 38 39 39 40 40 41 42 42 43 43 44 44 45 45
16 16 16 17 17 17 17 18 19 20 21 22 23 24 26 27 29 30 31 33 34 34 35 36 37 38 39 39 40 40 41 41 42 43 44 44 45 45 45 46 47 48 49
17 17 17 18 18 18 19 20 21 22 23 24 26 28 29 30 31 33 34 35 36 36 37 38 38 39 40 41 41 42 43 43 44 45 46 47 48 48 48 48 49 50 50
18 18 19 19 19 20 20 21 23 24 26 27 28 30 31 33 34 36 36 37 37 37 38 39 40 41 42 43 44 44 45 46 47 48 48 49 50 50 51 51 51 52 52
20 20 20 20 21 21 22 23 24 25 27 29 31 32 33 35 36 37 37 38 38 39 40 41 43 44 45 45 46 46 47 48 49 50 50 51 51 52 52 53 54 54 54
21 21 21 22 22 23 24 26 27 28 30 31 33 34 35 36 37 38 38 39 40 42 43 44 45 46 47 47 47 48 49 50 51 52 52 52 53 53 53 54 55 55 55
22 23 23 24 25 26 27 28 29 31 32 33 34 35 36 38 39 40 41 42 43 44 45 46 46 47 48 49 49 50 50 51 52 52 53 53 53 53 54 54 55 55 56
23 24 25 26 27 28 29 30 31 33 34 35 36 37 38 39 40 41 43 44 45 46 47 47 48 49 50 50 50 51 51 52 52 52 53 53 53 54 54 54 55 55 56
24 25 26 28 29 30 31 32 34 35 36 38 38 39 40 41 42 43 44 45 46 47 48 48 49 50 50 51 51 51 52 52 52 52 52 53 53 53 53 54 55 55 55
26 27 29 30 31 32 33 35 36 37 38 39 40 40 41 42 42 43 45 46 47 48 49 50 51 51 51 51 51 51 51 52 52 52 52 53 53 53 54 55 55 55 54
29 30 31 32 33 35 36 37 38 39 40 40 41 42 42 43 44 45 46 48 48 49 50 51 51 51 51 51 51 51 52 52 52 52 52 52 53 53 53 54 54 53 52
31 32 33 35 36 37 38 39 39 40 41 41 42 42 43 44 45 47 48 49 50 50 51 51 51 51 51 51 51 51 51 51 51 51 52 52 52 52 52 52 52 51 49
33 34 35 36 37 38 39 39 40 41 42 42 43 43 44 46 47 48 49 50 50 51 51 51 51 51 51 51 51 51 51 51 51 51 51 51 52 52 51 51 49 48 47
34 35 36 37 38 39 39 40 42 42 43 43 44 45 46 47 49 50 50 50 51 51 51 51 51 51 51 50 50 50 50 51 51 51 51 51 51 50 49 48 46 45 45
36 37 37 38 39 39 40 41 42 43 44 45 46 47 47 48 49 50 50 50 50 50 50 51 51 51 51 50 49 50 50 50 50 50 49 49 49 48 47 45 44 44 44
37 37 38 38 39 40 41 42 43 44 45 45 46 47 48 49 49 49 49 49 49 49 49 50 50 51 50 49 49 49 49 49 48 48 48 48 47 46 45 43 42 42 42

GEFSGL_500_meanwind_186.txt.gz
Wind_Speed
12 12 11 11 11 10 10 9 10 10 10 10 10 10 10 9 9 9 9 9 10 10 11 11 12 12 13 13 14 15 15 16 16 17 18 18 18 19 20 21 21 22 24
13 13 12 12 12 12 11 11 11 11 11 11 11 11 11 10 10 10 10 10 11 12 13 13 14 14 15 15 16 16 17 18 18 19 20 20 21 22 22 23 24 25 26
14 13 13 13 13 13 12 12 13 13 13 13 13 12 12 11 11 11 11 12 13 14 14 15 15 16 16 17 18 18 19 20 21 21 22 22 23 24 25 26 26 27 28
14 14 14 14 14 14 14 14 14 14 14 13 13 13 13 13 12 13 13 13 14 15 15 16 16 17 18 19 20 21 21 22 23 24 24 25 26 27 28 29 29 29 30
14 14 14 15 15 15 14 14 14 14 14 14 14 14 14 14 14 14 14 14 15 16 16 17 18 19 20 21 22 23 23 24 25 26 27 28 29 29 30 31 31 32 32
15 15 14 15 15 15 15 15 14 15 15 15 14 14 14 14 14 14 15 16 16 17 18 19 20 21 22 23 24 25 26 27 27 28 29 30 31 31 32 32 33 33 34
15 15 15 14 14 15 15 15 15 14 14 14 14 15 15 15 15 15 16 17 18 19 20 21 22 23 24 25 26 27 28 29 30 30 31 32 33 33 33 34 34 35 36
15 15 15 14 14 15 15 14 14 14 15 15 14 14 15 16 17 17 18 19 19 21 22 23 24 25 26 27 28 29 30 31 32 33 34 35 35 36 36 36 37 38 39
15 15 15 15 15 15 15 15 15 15 14 15 15 15 16 17 18 19 20 20 22 23 25 26 27 28 29 30 31 31 32 34 34 35 36 36 37 38 38 39 40 40 41
16 16 17 16 16 16 16 16 16 15 15 15 16 17 18 19 20 21 21 23 24 26 27 28 30 31 31 33 33 34 35 36 36 37 37 38 38 39 40 42 43 44 44
16 17 17 18 17 17 17 17 16 16 16 17 18 19 20 21 21 22 24 25 27 28 30 31 32 33 34 35 35 36 37 38 38 39 39 40 41 42 44 45 46 46 47
17 17 17 18 18 17 17 17 17 18 18 19 20 21 21 22 23 25 26 28 29 31 32 33 34 35 36 36 37 37 38 40 40 41 42 43 44 45 46 47 47 48 48
18 17 17 17 17 18 18 18 19 19 20 21 22 23 23 24 26 27 29 30 31 33 34 35 36 36 37 37 38 40 41 42 43 44 45 45 46 47 48 48 49 49 50
19 19 18 19 19 19 20 20 21 22 22 23 24 24 25 27 28 30 31 32 33 34 36 36 37 37 38 39 40 42 43 44 45 46 46 47 48 48 49 49 50 50 51
20 20 21 20 20 21 22 22 23 23 24 25 25 26 28 29 30 31 33 34 35 36 37 38 38 39 40 41 43 45 46 47 47 48 48 49 49 50 50 51 51 51 51
19 20 21 21 21 21 22 23 24 25 26 26 27 28 29 30 31 33 35 36 37 38 39 39 40 41 43 44 46 47 48 49 49 49 50 50 50 51 51 51 52 52 52
21 22 21 21 21 21 22 23 24 25 26 27 28 30 31 32 34 35 37 38 39 40 40 41 42 44 45 46 47 48 49 50 50 50 50 50 50 51 51 52 52 52 53
22 23 23 23 23 23 24 25 25 26 27 29 30 32 33 35 36 37 38 40 40 41 42 43 44 45 47 48 49 49 50 50 50 50 50 50 51 51 51 52 52 52 52
23 23 24 24 24 25 25 26 27 28 30 31 33 34 36 37 38 39 40 40 40 41 43 44 45 47 48 49 49 50 51 51 51 51 50 51 51 51 51 51 51 51 51
23 24 24 25 25 26 27 28 29 30 32 33 35 36 37 38 39 40 40 40 41 43 44 45 47 48 49 49 50 51 51 51 51 51 50 51 51 51 50 50 49 49 50
24 25 26 26 27 28 28 29 31 32 34 35 37 38 39 39 40 41 41 42 43 44 45 46 47 48 49 50 51 51 51 50 50 50 50 50 50 50 49 48 49 49 48
25 26 27 28 28 29 30 32 33 35 36 37 38 38 39 40 41 41 42 44 45 46 47 47 48 49 50 50 51 51 51 50 49 49 49 49 49 48 47 47 47 47 47
27 27 28 29 30 31 32 33 35 36 37 38 38 39 40 41 42 43 44 45 46 47 47 48 49 50 50 50 50 50 50 50 49 49 48 48 47 46 46 46 46 46 47
28 29 30 31 32 32 34 35 36 37 38 38 39 40 41 42 43 44 45 46 47 47 48 49 49 50 50 49 50 50 50 49 49 48 47 46 46 46 46 45 45 46 46
30 30 31 32 32 33 34 36 37 38 39 39 40 41 42 43 44 45 46 47 47 48 48 49 49 49 49 49 49 49 48 48 47 46 45 45 45 44 45 45 45 45 45
31 32 32 33 33 34 35 36 38 39 40 41 41 42 43 44 45 46 47 47 47 47 48 48 48 49 49 48 48 48 47 46 45 45 44 44 44 44 44 44 45 45 45

GEFSGL_500_meanwind_192.txt.gz
Wind_Speed
11 11 11 10 10 11 11 10 10 11 11 11 11 11 11 10 10 10 10 10 10 10 10 11 12 13 13 14 14 15 16 16 17 17 17 18 19 20 20 21 22 22 23
12 12 12 12 12 11 11 11 11 12 12 11 12 12 12 11 11 11 11 11 12 12 12 12 13 14 15 15 16 17 17 18 19 19 20 20 21 22 22 23 24 24 25
13 13 12 12 12 12 12 12 12 12 13 13 13 13 13 13 13 13 13 13 13 13 14 14 14 15 16 17 18 18 19 20 20 21 22 22 23 24 24 25 25 26 27
13 13 12 12 12 12 12 13 13 14 14 14 14 15 15 15 15 14 14 14 14 15 15 16 16 16 17 18 19 20 20 21 22 23 24 25 26 26 27 27 27 28 29
13 13 12 13 13 13 13 14 15 15 15 15 15 16 16 15 15 14 14 15 15 16 17 17 17 18 19 19 20 21 22 23 24 25 26 27 27 28 29 29 30 30 31
13 13 13 13 14 14 14 15 16 16 16 15 16 15 15 15 15 15 15 16 17 18 18 19 19 19 21 22 23 24 24 25 26 27 28 29 30 30 31 31 32 32 33
14 13 14 14 15 15 15 15 15 16 16 15 15 14 14 15 15 16 17 18 18 19 20 20 21 21 22 24 24 25 26 27 28 29 30 31 32 33 33 34 34 35 35
14 14 14 15 15 15 15 15 15 15 15 14 14 14 15 15 16 17 17 18 19 20 21 22 23 23 24 25 26 27 28 29 30 31 32 33 34 35 36 36 37 38 38
15 14 15 15 16 16 16 16 16 16 16 15 15 16 16 17 18 18 19 20 21 21 22 23 24 25 27 28 29 30 30 32 32 34 35 36 36 37 38 39 40 41 41
15 15 16 16 16 17 17 17 17 16 16 17 17 18 18 18 18 19 20 21 22 23 24 25 26 27 29 30 31 32 32 34 35 36 37 37 38 39 40 42 43 44 44
16 16 16 17 17 17 18 18 18 18 18 18 19 19 20 20 19 20 21 22 23 25 26 27 28 29 31 32 33 34 35 36 37 38 38 39 40 42 43 45 45 46 46
16 16 17 17 17 17 18 19 19 19 19 19 20 20 20 20 20 21 22 23 25 26 27 29 30 31 33 34 35 36 37 37 38 39 40 41 43 44 45 45 46 47 48
17 17 17 17 17 17 18 19 20 20 20 20 21 21 21 21 22 23 24 25 26 28 29 31 32 33 34 36 37 37 38 39 40 41 42 44 45 46 46 46 46 47 48
18 18 17 17 17 17 19 19 19 20 20 20 21 21 21 22 23 24 26 27 29 30 32 33 34 35 36 37 38 39 40 41 42 43 44 46 47 47 47 47 47 48 48
18 18 18 18 18 18 19 20 20 21 21 21 22 22 23 24 26 27 29 30 31 32 34 35 36 37 38 39 40 41 42 43 43 44 46 47 47 47 47 48 48 49 49
19 19 19 19 19 19 20 20 21 22 22 22 24 25 26 27 28 30 31 32 33 34 35 36 37 38 39 40 41 42 43 44 45 46 47 48 48 48 49 49 49 50 50
20 20 20 20 21 21 22 22 22 22 23 24 26 27 28 29 30 31 32 33 34 36 37 37 39 40 41 41 42 43 45 46 47 47 48 49 49 49 49 50 50 50 50
21 21 21 21 22 23 23 23 23 24 25 26 28 29 30 30 31 32 34 35 36 37 39 40 41 42 42 43 44 45 46 47 48 48 49 49 49 49 49 49 49 49 49
22 22 22 23 23 24 24 24 25 25 26 27 29 30 31 32 33 34 36 37 38 39 40 42 43 43 44 45 46 46 47 47 48 48 49 49 50 50 49 49 49 49 49
23 24 24 24 24 24 25 26 26 27 28 29 30 32 33 34 35 36 38 39 40 41 42 43 43 44 45 46 46 46 47 47 48 49 49 49 50 50 49 48 48 48 48
24 25 25 24 25 26 26 27 28 29 30 31 32 33 35 36 37 38 39 41 42 42 43 44 45 45 46 47 46 46 47 48 49 49 49 49 49 49 48 47 47 48 47
25 25 25 26 26 26 27 28 29 31 31 32 33 34 35 37 38 39 40 41 42 43 44 45 45 46 46 47 47 48 48 49 49 49 49 49 48 48 47 47 47 47 47
26 26 26 27 28 28 29 30 31 32 32 33 34 35 36 38 39 40 41 42 43 44 45 45 45 45 46 47 48 48 49 49 49 49 49 48 48 47 47 46 46 47 47
26 27 27 28 29 29 30 31 32 33 34 35 36 37 38 38 39 40 42 43 44 44 44 45 45 46 47 47 48 48 48 49 49 49 48 47 47 46 46 46 46 47 47
28 28 29 29 30 30 32 33 33 34 35 36 37 38 38 40 41 42 43 43 43 43 44 45 46 47 47 47 47 48 48 49 48 47 47 47 46 45 45 45 45 46 46
30 30 30 31 31 32 33 34 35 36 36 37 38 39 40 41 41 42 43 43 43 44 45 46 46 46 46 47 47 47 48 48 47 46 46 45 45 44 44 44 45 46 45

GEFSGL_500_meanwind_198.txt.gz
Wind_Speed
12 12 12 11 11 11 10 10 10 10 10 10 10 10 9 9 9 10 10 9 9 10 10 10 11 12 12 12 12 13 14 14 15 16 16 17 17 17 18 19 20 21 21
13 13 12 11 11 11 11 11 11 11 11 11 11 11 10 11 11 11 11 11 11 12 12 12 13 13 13 14 14 15 15 16 16 17 18 18 19 20 20 21 22 23 24
15 14 13 13 12 12 12 12 12 12 13 13 13 13 12 12 12 12 12 12 13 13 14 14 14 14 15 15 16 16 17 18 19 19 20 21 22 22 23 23 24 25 26
14 14 14 14 13 13 13 13 14 14 14 14 14 14 14 13 13 13 14 14 14 15 15 15 15 16 17 17 17 18 19 20 20 21 22 23 24 25 25 26 27 27 28
14 14 14 14 14 14 14 14 14 14 14 14 14 14 14 14 14 15 15 15 15 16 16 16 17 18 18 19 19 20 21 21 22 23 24 25 26 27 28 29 29 30 31
14 14 15 15 15 14 14 15 14 14 15 15 15 14 14 15 15 16 16 16 16 17 18 18 19 19 20 20 21 22 23 23 24 25 26 27 28 29 30 31 32 32 33
15 15 15 15 15 15 14 14 14 15 15 15 16 15 16 17 17 17 17 17 18 19 19 19 19 20 21 22 23 24 24 25 26 27 28 29 30 31 32 34 35 35 37
15 15 15 15 14 14 14 14 14 15 15 16 16 16 17 18 18 18 18 18 18 19 19 20 21 22 23 24 25 26 27 28 28 29 31 32 33 34 35 36 37 38 39
16 16 16 15 15 15 15 15 15 15 16 16 16 16 16 17 18 18 18 18 19 20 21 22 23 23 24 25 26 28 29 30 31 32 33 34 36 37 38 39 39 40 41
16 16 16 16 16 16 16 16 16 16 16 16 16 16 17 17 18 18 18 19 20 21 22 23 24 25 25 27 28 30 31 32 33 34 35 36 37 39 40 41 41 42 43
16 16 17 17 17 17 17 17 17 16 16 16 17 18 19 19 19 19 20 20 22 23 23 24 24 26 27 28 30 31 32 33 35 35 36 38 39 40 41 42 43 44 45
17 17 17 17 17 17 17 17 17 17 17 17 18 19 20 21 21 21 22 23 24 24 25 26 27 28 29 31 32 33 34 35 36 37 38 40 40 42 43 44 45 45 46
17 17 17 17 17 17 17 17 17 17 17 17 18 18 19 20 21 22 23 25 26 25 26 27 28 30 32 33 34 35 36 38 39 40 41 42 43 44 45 46 46 46 46
18 18 18 17 17 17 17 17 18 18 18 18 18 19 20 21 22 23 24 26 27 27 27 28 30 32 33 35 36 38 39 40 41 42 42 43 45 46 46 46 46 46 46
19 19 19 18 18 18 18 18 19 20 20 20 21 21 22 22 23 24 25 26 27 28 29 31 32 34 36 37 38 39 40 41 42 43 44 45 45 46 46 47 47 47 47
20 19 19 19 19 19 19 19 20 21 21 22 23 23 24 24 25 25 26 27 28 29 31 32 34 35 37 38 40 41 42 42 43 44 45 46 46 47 47 48 48 48 48
20 20 20 21 21 21 21 21 22 22 23 24 25 25 25 26 26 27 28 29 30 31 33 34 36 37 38 40 40 41 42 43 44 45 46 46 47 48 48 48 48 48 48
21 21 21 22 22 23 23 23 23 24 24 25 25 25 26 27 28 29 30 31 32 33 35 36 37 39 40 41 41 41 42 44 44 45 46 47 48 48 48 48 47 48 48
22 22 22 23 23 23 23 24 24 25 25 25 26 26 27 28 29 30 31 32 34 35 37 38 39 40 41 41 42 43 44 45 45 46 47 47 48 48 48 47 47 47 47
22 23 23 24 24 24 24 24 25 25 26 26 27 27 28 29 30 31 33 34 36 37 39 40 41 41 42 42 43 44 45 45 46 46 47 48 48 48 48 47 47 47 47
22 23 23 23 24 24 25 25 26 26 26 27 28 28 29 30 32 33 35 36 38 39 41 41 42 42 43 44 44 45 45 46 47 47 48 48 48 48 47 47 47 47 46
23 23 23 23 24 25 25 26 26 27 28 29 29 31 32 33 34 35 37 38 40 41 42 42 42 43 44 44 45 45 46 47 47 48 48 48 48 47 47 46 46 46 45
24 24 24 25 25 25 26 26 27 28 29 31 31 32 34 34 35 37 38 40 41 41 41 42 43 43 43 44 44 45 46 46 47 47 47 47 47 47 46 46 45 45 44
26 26 26 26 27 27 27 28 28 29 31 32 32 34 35 36 37 38 39 40 40 40 41 42 42 42 43 43 44 45 46 46 46 46 46 46 46 46 45 45 44 44 44
27 28 28 28 29 29 30 30 30 31 32 33 34 35 36 37 38 39 39 39 40 41 41 42 41 42 43 43 44 44 45 45 45 46 46 46 45 45 44 44 43 43 43
29 29 30 31 31 31 31 32 32 32 33 34 35 36 36 37 38 39 39 39 40 40 41 41 42 42 43 43 43 43 44 45 45 45 45 44 44 44 43 43 43 43 43

GEFSGL_500_meanwind_204.txt.gz
Wind_Speed
14 14 14 14 13 13 13 12 12 12 12 12 11 11 11 11 11 11 11 10 10 10 10 11 11 11 11 12 13 13 14 15 15 16 16 17 17 18 19 19 20 20 21
14 14 14 14 14 13 13 13 12 12 12 12 12 12 12 12 12 12 12 12 12 12 12 12 12 12 13 14 14 15 16 16 17 17 18 18 19 20 20 21 22 23 23
15 14 14 14 14 14 14 14 13 13 13 13 13 13 13 13 13 14 14 14 14 13 13 13 13 14 14 15 16 16 16 17 18 19 19 20 20 21 22 23 24 25 26
15 15 15 15 14 15 15 14 14 14 14 14 14 14 14 14 14 14 15 15 15 14 14 14 15 15 16 17 17 18 18 19 19 20 21 22 22 24 25 26 27 28 29
16 15 15 16 15 15 16 16 15 15 15 15 15 15 15 15 15 16 16 16 16 15 16 16 17 17 18 18 18 19 20 21 22 23 23 24 25 26 27 28 29 30 31
17 16 16 16 16 16 17 16 16 16 16 16 15 16 16 17 17 17 17 17 17 17 17 17 18 19 19 19 20 21 22 23 24 24 25 26 27 28 29 30 31 32 33
18 17 17 17 17 17 17 16 16 17 17 16 16 17 17 17 17 18 18 18 19 19 19 20 20 20 21 21 22 23 24 25 26 27 27 28 30 31 32 33 33 34 35
18 18 18 18 18 18 18 18 18 17 17 17 17 17 17 17 18 18 19 19 20 20 20 21 21 21 22 23 24 24 25 27 28 29 30 31 32 33 34 35 35 36 37
18 19 19 19 19 19 19 19 18 18 18 18 17 17 17 18 18 19 20 20 20 20 21 21 22 23 24 25 26 26 27 28 30 31 32 33 35 36 36 37 38 39 40
18 18 19 19 19 18 19 19 19 18 18 17 17 17 18 19 19 19 19 20 20 20 21 22 23 24 26 27 27 28 30 31 33 34 35 36 37 38 38 39 41 42 42
18 18 18 18 18 18 18 18 18 18 18 18 18 18 19 19 20 20 20 20 20 21 22 23 25 26 27 28 29 30 32 33 35 36 36 37 39 40 41 42 43 44 44
17 17 18 18 18 18 18 19 19 20 20 19 19 19 19 20 21 21 21 22 22 23 24 25 26 28 29 30 31 32 34 35 36 37 38 39 40 41 42 43 43 44 45
17 17 17 17 17 18 19 19 19 20 19 19 19 20 21 21 22 22 22 23 24 25 26 27 28 29 31 32 33 35 36 37 37 38 39 40 41 42 43 44 44 45 47
18 17 17 18 18 19 19 19 20 20 20 20 20 21 22 22 22 23 23 24 26 26 27 28 29 31 32 33 34 35 36 37 38 39 40 41 42 43 45 45 46 47 48
18 18 19 19 19 19 20 21 21 20 20 20 21 22 22 22 23 24 24 25 26 27 28 29 31 32 33 34 35 36 37 38 39 40 41 42 44 45 45 46 47 48 49
19 19 19 20 21 20 20 20 20 21 22 22 22 22 23 24 24 25 25 26 28 29 30 30 31 32 33 34 36 37 38 39 40 41 42 44 44 45 46 47 48 48 48
20 20 20 21 21 21 21 21 21 22 22 23 23 23 24 25 26 26 27 28 30 31 31 31 32 33 34 35 36 38 39 40 41 42 43 45 46 46 47 47 48 48 48
20 20 21 21 21 21 22 22 22 22 23 23 24 25 25 26 26 27 28 29 31 31 32 33 33 34 35 37 37 39 40 41 42 43 44 46 46 46 47 47 47 48 48
21 21 21 21 21 22 22 23 23 24 24 25 25 26 26 27 27 29 30 31 31 32 33 34 35 36 37 38 39 40 42 43 43 43 44 45 46 46 47 47 47 47 47
22 22 23 23 23 23 23 24 24 25 25 26 26 26 27 28 29 30 31 32 33 34 34 35 36 37 38 39 40 41 42 43 43 43 44 45 45 46 46 46 46 46 46
23 23 24 24 24 24 25 25 26 26 26 26 27 27 28 29 30 31 32 33 34 35 36 36 37 38 39 40 41 42 43 43 43 43 44 44 45 46 46 46 46 46 46
24 25 25 25 25 25 26 26 27 27 27 27 28 29 30 30 31 32 33 34 35 36 36 37 38 39 40 41 42 42 43 43 43 43 43 44 45 46 46 46 46 46 46
25 25 25 26 26 27 27 28 28 28 28 29 29 30 31 32 33 34 34 35 36 36 37 39 40 41 41 42 42 42 42 42 42 42 43 44 45 45 46 46 47 46 46
26 26 26 26 27 27 28 28 29 29 30 31 31 32 33 33 34 35 36 36 37 37 38 39 40 40 41 41 41 42 42 41 42 43 44 44 45 46 46 47 47 46 46
27 27 27 28 28 28 29 29 29 30 30 31 32 33 34 34 35 35 36 36 37 38 39 39 39 39 40 40 40 41 41 42 43 43 44 44 46 46 46 46 46 46 46
29 29 30 30 30 30 30 30 30 30 31 32 33 33 34 35 35 35 36 37 37 38 38 38 39 39 40 40 40 41 41 42 43 43 44 45 46 46 46 46 46 46 46

GEFSGL_500_meanwind_210.txt.gz
Wind_Speed
15 15 14 14 14 14 13 13 13 13 13 12 12 12 12 11 11 11 11 11 10 10 10 10 10 10 11 11 11 11 12 13 13 14 14 15 16 16 17 17 18 19 20
16 16 16 15 15 15 14 14 14 14 14 14 14 13 13 12 11 11 11 11 11 12 12 12 12 12 12 12 12 12 13 14 14 15 16 16 17 18 18 19 20 21 21
17 17 16 16 16 16 15 15 14 14 14 14 14 14 14 14 13 13 13 13 13 13 13 13 13 13 13 14 14 14 14 14 15 16 17 18 19 20 20 21 22 23 23
17 17 16 16 16 16 15 15 15 15 15 14 13 14 14 14 14 14 14 14 15 15 15 14 14 14 14 15 15 15 16 17 18 18 19 20 21 22 23 23 24 25 26
17 18 17 16 17 16 16 15 15 15 15 15 14 14 14 14 14 15 15 16 16 16 16 16 16 16 17 17 17 17 18 19 20 21 21 22 23 24 25 26 27 28 28
18 18 18 18 17 17 16 15 16 16 15 15 15 15 15 15 16 16 16 16 16 17 17 18 17 18 18 19 19 20 21 22 22 23 23 24 25 25 26 27 28 29 31
19 19 18 17 17 17 17 16 16 16 16 16 15 16 16 16 16 17 17 17 17 18 19 19 19 19 20 21 21 22 23 23 24 25 25 26 26 27 28 29 30 32 33
18 19 19 18 18 18 17 17 17 17 17 16 16 16 17 17 16 17 17 18 19 20 20 20 21 21 21 22 22 23 24 24 25 26 27 28 29 29 31 32 33 34 35
18 19 19 19 19 19 19 19 19 18 17 17 17 17 17 16 17 17 18 19 20 21 21 22 22 22 22 23 24 24 25 26 27 29 29 30 31 32 33 34 35 36 37
19 19 19 20 20 20 20 20 19 19 18 18 17 17 17 18 19 19 20 20 20 21 22 22 22 22 23 24 25 26 27 28 29 30 31 32 33 34 35 36 37 38 39
18 18 19 19 19 19 19 19 19 19 19 18 18 18 18 18 19 20 21 21 21 21 21 22 22 23 24 25 26 27 28 29 30 32 33 34 35 35 37 38 39 40 41
17 17 18 19 19 19 19 19 18 18 19 19 19 20 19 19 20 20 21 21 21 21 22 22 23 24 25 26 28 28 29 31 32 33 34 35 36 37 38 40 41 41 42
18 18 18 18 19 19 19 18 18 18 18 19 19 19 20 20 21 21 21 21 21 22 22 23 24 25 26 28 29 30 31 32 33 34 35 36 37 39 40 41 42 42 44
20 19 18 18 19 18 18 18 18 18 19 19 19 19 20 20 20 20 21 21 21 22 23 24 25 26 27 29 30 31 32 33 34 35 36 37 39 40 40 41 42 43 44
20 20 19 19 19 19 18 18 18 18 18 19 19 19 19 20 20 20 20 20 21 22 23 25 26 27 28 29 30 31 33 34 35 36 37 38 39 40 40 41 43 44 45
20 20 20 19 19 19 19 19 19 19 20 20 20 20 20 20 21 21 21 21 22 23 24 25 26 27 28 29 31 32 33 34 35 37 37 38 39 40 41 43 44 44 45
21 21 21 21 20 21 21 20 20 20 21 21 21 21 21 21 22 22 22 23 24 25 25 26 28 29 29 30 32 33 34 35 36 37 38 39 40 41 42 43 43 44 44
22 22 22 22 22 22 21 21 21 21 21 22 22 23 23 23 23 23 23 24 25 26 27 28 29 30 31 32 33 34 35 36 37 37 38 39 40 41 42 42 43 43 43
22 23 23 23 23 23 23 23 23 23 23 23 24 24 24 23 23 24 25 26 27 28 29 30 31 32 32 33 34 35 35 36 37 38 39 40 41 42 42 42 43 43 44
22 23 24 24 24 24 24 24 25 25 24 25 25 25 24 24 25 26 27 28 29 29 30 31 32 33 34 35 35 36 36 37 39 39 40 40 41 42 42 43 44 44 45
23 24 25 25 24 24 24 25 26 26 26 27 27 27 26 26 27 28 29 30 30 31 32 32 33 34 35 35 36 37 37 38 39 39 40 40 40 41 42 43 45 45 45
24 24 25 25 25 25 25 26 27 27 28 28 28 28 28 28 29 29 30 31 32 33 33 34 34 35 35 36 37 37 38 39 39 40 40 40 41 42 42 43 44 44 45
26 25 25 26 27 26 26 27 28 29 29 29 28 29 29 29 30 31 32 33 34 34 35 35 36 36 37 37 38 38 39 39 39 40 40 41 42 42 43 44 45 45 45
27 26 26 27 27 28 28 28 28 28 29 29 29 29 30 31 31 32 33 35 35 36 36 36 37 37 38 38 38 38 39 39 39 40 41 42 42 43 44 45 45 45 45
28 27 27 27 27 27 28 28 29 29 29 30 30 31 32 32 33 33 34 35 36 36 37 37 38 38 39 39 39 39 39 40 41 41 42 42 43 44 44 45 45 45 44
28 29 29 29 29 29 29 29 29 30 30 31 32 32 33 33 34 35 35 36 37 37 38 38 38 39 39 39 39 40 40 41 42 42 43 43 43 44 44 45 44 44 44

GEFSGL_500_meanwind_216.txt.gz
Wind_Speed
15 16 16 15 14 14 14 14 13 13 13 13 13 12 12 12 12 12 11 11 12 12 12 12 11 11 11 12 12 13 13 13 14 14 15 15 16 16 17 17 18 19 20
15 16 16 16 16 15 15 15 14 14 14 14 14 13 13 13 13 13 12 13 13 13 13 13 13 13 13 13 14 14 14 14 15 16 16 17 18 18 18 19 20 20 21
16 16 17 17 17 16 16 15 15 15 15 15 15 14 14 14 14 14 14 13 14 14 14 15 15 15 15 15 15 15 15 16 16 17 17 18 19 20 20 21 22 22 23
16 16 17 17 17 17 17 16 16 16 16 16 15 15 15 15 15 15 15 15 15 15 15 16 16 17 16 16 16 16 17 17 18 19 19 20 21 21 22 23 24 24 25
16 17 16 16 17 17 17 17 17 17 16 16 16 16 15 15 15 15 15 16 16 16 17 17 17 17 18 18 18 18 18 19 19 20 21 22 22 23 23 24 25 26 27
16 16 17 17 17 17 17 17 18 17 17 17 17 17 17 16 16 16 16 17 17 18 18 18 19 19 20 20 20 20 21 21 21 22 22 22 23 24 24 26 27 27 29
17 17 17 18 18 18 18 19 19 18 18 18 18 18 17 17 17 17 18 18 18 18 18 18 19 20 21 21 21 21 22 22 22 23 23 24 25 26 27 28 29 30 31
18 17 18 18 19 19 19 20 20 19 19 19 18 18 18 17 17 18 18 18 17 18 18 20 21 21 22 22 22 22 23 23 24 24 25 26 27 28 28 29 30 31 32
18 18 18 18 19 19 19 19 19 19 19 19 18 19 18 18 18 18 18 18 19 19 20 21 21 22 23 23 23 24 24 25 25 26 26 27 28 29 30 31 31 32 34
18 19 19 19 19 19 18 18 19 19 19 19 19 19 19 18 18 18 18 19 19 19 20 21 22 22 23 23 24 25 25 25 26 27 28 29 30 31 32 32 33 34 36
18 17 18 18 18 18 18 18 19 19 19 19 19 19 19 19 19 19 19 20 20 20 21 21 22 23 23 24 24 25 25 26 27 28 29 30 31 32 33 34 35 37 38
19 19 19 19 19 19 19 18 18 18 18 18 19 19 19 19 19 20 20 21 21 22 22 22 23 24 24 25 26 26 27 27 28 29 30 31 32 33 34 35 37 38 39
20 20 20 20 20 19 19 19 20 20 19 19 19 19 20 19 19 20 20 21 22 22 22 23 24 24 25 25 26 27 28 28 29 30 31 32 33 34 35 36 37 39 41
20 21 21 21 21 21 21 20 20 20 20 20 20 19 19 19 20 21 21 22 22 22 23 23 24 24 24 25 26 27 28 29 30 31 32 33 34 35 36 37 39 40 41
20 21 21 22 22 22 22 21 21 21 22 21 21 20 21 21 21 22 22 22 23 24 24 24 24 25 26 26 27 28 28 29 30 31 33 34 34 35 37 38 39 40 42
21 20 21 21 21 22 22 22 23 23 23 22 22 22 23 23 23 23 23 23 24 24 24 25 25 26 27 28 28 29 30 31 32 33 34 35 36 37 38 39 40 41 43
21 21 20 20 21 22 22 22 22 23 24 24 24 23 23 24 24 24 24 24 25 26 26 26 27 27 28 29 30 30 31 32 33 34 35 36 37 38 39 40 42 43 44
22 22 22 21 21 21 22 22 23 23 23 24 24 24 23 24 24 24 24 25 26 26 27 28 28 29 30 30 31 32 33 33 34 35 36 37 38 39 40 41 42 43 44
23 23 23 23 23 22 23 23 23 23 23 23 23 24 25 25 25 26 26 27 27 28 28 29 30 31 31 32 33 33 34 34 35 36 38 38 39 40 41 42 43 44 44
25 25 25 24 24 23 23 23 24 24 24 24 24 25 26 26 26 27 27 28 29 29 30 30 31 32 33 33 34 34 35 35 36 38 38 39 39 40 41 42 43 44 44
25 25 26 25 25 24 24 24 25 25 25 26 26 26 27 27 27 28 28 29 30 30 31 31 32 33 33 34 35 35 36 36 37 38 39 40 41 42 42 43 44 44 44
26 26 26 25 25 26 26 26 26 26 27 27 28 28 28 28 28 29 29 30 31 32 32 33 34 34 34 35 35 36 36 37 38 39 40 41 42 43 43 43 43 44 44
27 27 26 26 26 27 27 28 28 28 28 28 29 29 29 29 29 30 31 32 32 32 33 34 34 35 35 36 36 37 38 38 39 40 41 42 43 43 43 43 43 43 43
28 27 27 27 27 27 28 28 29 29 29 30 30 31 31 31 32 32 33 33 33 33 34 34 35 35 36 37 37 38 39 39 40 41 42 42 43 43 43 43 44 44 44
28 28 28 28 28 29 29 29 30 30 31 31 31 31 32 33 34 34 34 34 35 35 35 36 37 37 37 37 38 39 40 40 41 42 42 43 43 43 43 43 43 44 44
29 29 29 29 29 29 30 30 31 31 31 31 32 32 33 33 34 34 35 35 35 35 36 37 38 38 38 38 39 39 40 41 42 43 43 43 43 43 43 43 44 44 44